Flag for Germany Weather past 2 weeks in Worms, Rhineland-Palatinate, Germany

Now
73 °F

Thundershowers. Broken clouds.


Feels Like: 75 °F
Forecast: 62 / 78 °F
Wind: 6 mph from South

Location: Baden Wurttemberg - Neuostheim

Current Time: Jul 29, 2014 at 5:04:13 PM

Latest Report: Jul 29, 2014 at 4:20 PM


Visibility: N/A

Pressure: 29.74 "Hg

Humidity: 74%

Dew point: 64 °F

Location of WormsLocation

Historic Weather in Worms — Graph

°F

Worms temperature yesterday

Maximum temperature yesterday: 84 °F (at 4:20 PM)
Minimum temperature yesterday: 63 °F (at 5:50 AM)
Average temperature yesterday: 74 °F

Past Weeks' High & Low Weather Summary

 TemperatureHumidityPressure
High93 °F (Jul 18, 4:50 PM)100% (Jul 21, 5:50 AM)30.18 "Hg (Jul 21, 5:50 AM)
Low59 °F (Jul 15, 5:20 AM)20% (Jul 18, 5:50 PM)29.77 "Hg (Jul 28, 5:20 PM)
Average75 °F60%29.96 "Hg
* Reported Jul 14 3:20 PM — Jul 29 3:50 PM, Worms, Weather by CustomWeather, © 2014

Note: Actual official high and low records may vary slightly from our data, if they occured in-between our weather recording intervals... More about our weather records

Advertising

Worms weather history for previous 24 hours

 ConditionsComfort  
Time TempWeatherWind HumidityBarometerVisibility
3:50 PM
Jul 29
73 °FThundershowers. Partly sunny.8 mph74%29.77 "Hg6 mi
3:20 PM75 °FBroken clouds.6 mph74%29.77 "Hg6 mi
2:50 PM73 °FScattered clouds.7 mph74%29.77 "Hg5 mi
2:20 PM72 °FPartly sunny.5 mph78%29.77 "Hg5 mi
1:50 PM72 °FPartly sunny.5 mph78%29.77 "Hg4 mi
1:20 PM70 °FMostly cloudy.6 mph83%29.80 "Hg4 mi
12:50 PM70 °FMostly cloudy.6 mph83%29.80 "Hg4 mi
12:20 PM68 °FFog.3 mph88%29.80 "Hg3 mi
11:50 AM68 °FFog.3 mph88%29.80 "Hg3 mi
11:20 AM66 °FFog.5 mph88%29.80 "Hg3 mi
10:50 AM66 °FFog.5 mph94%29.80 "Hg3 mi
10:20 AM66 °FFog.3 mph94%29.80 "Hg3 mi
9:50 AM64 °FFog.5 mph100%29.80 "Hg3 mi
9:20 AM64 °FFog.5 mph100%29.80 "Hg3 mi
8:50 AM64 °FFog.3 mph100%29.80 "Hg2 mi
8:20 AM64 °FFog.3 mph100%29.80 "Hg2 mi
7:50 AM64 °FFog.5 mph100%29.77 "Hg1 mi
7:20 AM64 °FFog.3 mph100%29.77 "Hg1 mi
6:50 AM64 °FFog.3 mph100%29.77 "Hg3 mi
6:20 AM64 °FMostly cloudy.3 mph100%29.77 "Hg5 mi
5:50 AM64 °FLow clouds.6 mph100%29.77 "Hg5 mi
5:20 AM66 °FMostly cloudy.5 mph94%29.77 "Hg5 mi
10:20 PM
Jul 28
72 °FSprinkles. Partly cloudy.6 mph73%29.83 "HgN/A
9:50 PM73 °FScattered showers. Broken clouds.8 mph69%29.80 "HgN/A
9:20 PM73 °FBroken clouds.6 mph74%29.80 "HgN/A
8:50 PM73 °FPartly sunny.9 mph69%29.80 "HgN/A
8:20 PM73 °FSunny.12 mph65%29.80 "Hg10 mi
7:50 PM75 °FPartly sunny.10 mph65%29.80 "HgN/A
7:20 PM77 °FPartly sunny.7 mph61%29.77 "HgN/A
6:50 PM77 °FPartly sunny.7 mph61%29.77 "HgN/A
6:20 PM77 °FBroken clouds.7 mph57%29.77 "HgN/A
5:50 PM79 °FThundershowers. Scattered clouds.9 mph54%29.77 "HgN/A
5:20 PM79 °FScattered clouds.13 mph54%29.77 "HgN/A
Weather by CustomWeather, © 2014

See weather overviewHow to use our weather pages